| time (UTC) | temp C | wind direction | speed KPH | gust KPH | rain 1hr cm | rain 24hr cm | rain mn cm | humidity % | barometer mb |
| 20260509190028 | 10 | 0.0 | 0.0 | 0.23 | 0.51 | 0.51 | 95 | 1008.1 | |
| 20260509184530 | 9 | 0.0 | 0.0 | 0.25 | 0.48 | 0.48 | 94 | 1008.2 | |
| 20260509183011 | 9 | 0.0 | 0.0 | 0.18 | 0.38 | 0.38 | 94 | 1008.3 | |
| 20260509181507 | 9 | 0.0 | 0.0 | 0.13 | 0.30 | 0.30 | 94 | 1008.2 | |
| 20260509180005 | 9 | 0.0 | 0.0 | 0.10 | 0.25 | 0.25 | 94 | 1008.2 | |
| 20260509174505 | 9 | 0.0 | 0.0 | 0.08 | 0.23 | 0.23 | 95 | 1008.2 | |
| 20260509173004 | 9 | 0.0 | 0.0 | 0.05 | 0.20 | 0.20 | 95 | 1008.1 | |
| 20260509171600 | 9 | 0.0 | 0.0 | 0.03 | 0.18 | 0.18 | 94 | 1008.1 | |
| 20260509170101 | 9 | 0.0 | 0.0 | 0.03 | 0.15 | 0.15 | 94 | 1008.1 | |
| 20260509164532 | 9 | 0.0 | 0.0 | 0.03 | 0.15 | 0.15 | 94 | 1008.1 | |
| 20260509163039 | 9 | 0.0 | 0.0 | 0.03 | 0.15 | 0.15 | 94 | 1008.2 | |
| 20260509161531 | 9 | 0.0 | 0.0 | 0.03 | 0.15 | 0.15 | 95 | 1008.4 | |
| 20260509160029 | 9 | 0.0 | 0.0 | 0.00 | 0.13 | 0.13 | 95 | 1008.5 | |
| 20260509154527 | 9 | 0.0 | 0.0 | 0.00 | 0.13 | 0.13 | 95 | 1008.6 | |
| 20260509153034 | 8 | 0.0 | 0.0 | 0.00 | 0.13 | 0.13 | 96 | 1008.7 | |
| 20260509151520 | -17 | 0.0 | 0.0 | 0.00 | 0.13 | 0.13 | 1009.1 | ||
| 20260509150017 | -17 | 0.0 | 0.0 | 0.00 | 0.13 | 0.13 | 1009.2 | ||
| 20260509144511 | -17 | 0.0 | 0.0 | 0.00 | 0.13 | 0.13 | 1009.4 | ||
| 20260509143008 | -17 | 0.0 | 0.0 | 0.00 | 0.13 | 0.13 | 1009.5 | ||
| 20260509141503 | -17 | 0.0 | 0.0 | 0.00 | 0.13 | 0.13 | 1009.4 | ||
| 20260509134554 | -17 | 0.0 | 0.0 | 0.00 | 0.13 | 0.13 | 1009.3 | ||
| 20260509133050 | -17 | 0.0 | 0.0 | 0.00 | 0.13 | 0.13 | 1009.3 | ||
| 20260509131545 | -17 | 0.0 | 0.0 | 0.00 | 0.13 | 0.13 | 1009.6 | ||
| 20260509130042 | -17 | 0.0 | 0.0 | 0.00 | 0.13 | 0.13 | 1009.6 | ||
| 20260509124544 | -17 | 0.0 | 0.0 | 0.00 | 0.13 | 0.13 | 1009.6 | ||
| 20260509123035 | -17 | 0.0 | 0.0 | 0.00 | 0.13 | 0.13 | 1009.8 | ||
| 20260509121534 | -17 | 0.0 | 0.0 | 0.00 | 0.13 | 0.13 | 1009.7 | ||
| 20260509120034 | -17 | 0.0 | 0.0 | 0.00 | 0.13 | 0.13 | 1009.9 | ||
| 20260509114532 | -17 | 0.0 | 0.0 | 0.00 | 0.13 | 0.13 | 1010.0 | ||
| 20260509113036 | -17 | 0.0 | 0.0 | 0.00 | 0.13 | 0.13 | 1009.8 | ||
| 20260509111533 | -17 | 0.0 | 0.0 | 0.00 | 0.13 | 0.13 | 1009.9 | ||
| 20260509110032 | -17 | 0.0 | 0.0 | 0.00 | 0.13 | 0.13 | 1009.8 | ||
| 20260509104530 | -17 | 0.0 | 0.0 | 0.00 | 0.13 | 0.13 | 1009.7 | ||
| 20260509103030 | -17 | 0.0 | 0.0 | 0.00 | 0.13 | 0.13 | 1009.8 | ||
| 20260509101545 | -17 | 0.0 | 0.0 | 0.00 | 0.13 | 0.13 | 1009.8 | ||
| 20260509100032 | -17 | 0.0 | 0.0 | 0.00 | 0.13 | 0.13 | 1009.6 | ||
| 20260509094528 | -17 | 0.0 | 0.0 | 0.00 | 0.13 | 0.13 | 1009.8 | ||
| 20260509093026 | -17 | 0.0 | 0.0 | 0.00 | 0.13 | 0.13 | 1009.7 | ||
| 20260509091523 | 7 | 0.0 | 0.0 | 0.03 | 0.13 | 0.13 | 93 | 1009.7 | |
| 20260509090033 | 7 | 0.0 | 0.0 | 0.03 | 0.13 | 0.13 | 93 | 1009.9 | |
| 20260509084520 | 7 | 0.0 | 0.0 | 0.03 | 0.13 | 0.13 | 93 | 1009.9 | |
| 20260509083031 | 7 | 0.0 | 0.0 | 0.03 | 0.13 | 0.13 | 93 | 1010.0 | |
| 20260509081518 | 7 | 0.0 | 0.0 | 0.00 | 0.10 | 0.10 | 93 | 1010.2 | |
| 20260509080020 | 7 | 0.0 | 0.0 | 0.03 | 0.10 | 0.10 | 93 | 1010.5 | |
| 20260509074516 | 7 | 0.0 | 0.0 | 0.03 | 0.10 | 0.10 | 93 | 1010.5 | |
| 20260509073023 | 7 | 0.0 | 0.0 | 0.03 | 0.10 | 0.10 | 92 | 1010.5 | |
| 20260509071515 | 7 | 0.0 | 0.0 | 0.05 | 0.10 | 0.10 | 92 | 1010.5 | |
| 20260509070013 | 7 | 0.0 | 0.0 | 0.05 | 0.08 | 0.08 | 92 | 1010.5 | |
| 20260509064512 | 7 | 0.0 | 0.0 | 0.08 | 0.08 | 0.08 | 91 | 1010.4 | |
| 20260509063019 | 7 | 0.0 | 0.0 | 0.08 | 0.08 | 0.08 | 91 | 1010.8 | |
| 20260509061508 | 7 | 0.0 | 0.0 | 0.05 | 0.05 | 0.05 | 91 | 1010.9 | |
| 20260509060007 | 7 | 0.0 | 0.0 | 0.03 | 0.03 | 0.03 | 91 | 1011.0 | |
| 20260509054505 | 7 | 0.0 | 0.0 | 0.00 | 0.00 | 0.00 | 90 | 1011.2 | |
| 20260509053003 | 7 | 0.0 | 0.0 | 0.00 | 0.00 | 0.00 | 89 | 1011.2 | |
| 20260509051502 | 6 | 0.0 | 0.0 | 0.00 | 0.00 | 0.00 | 88 | 1011.1 | |
| 20260509050100 | 6 | 0.0 | 0.0 | 0.00 | 0.00 | 0.00 | 87 | 1011.0 | |
| 20260509044653 | 6 | 0.0 | 0.0 | 0.00 | 0.00 | 0.00 | 86 | 1011.1 | |
| 20260509043138 | 6 | 0.0 | 0.0 | 0.00 | 0.00 | 0.00 | 86 | 1011.2 | |
| 20260509041554 | 6 | 0.0 | 0.0 | 0.00 | 0.00 | 0.00 | 85 | 1011.4 | |
| 20260509040052 | 6 | 0.0 | 0.0 | 0.00 | 0.00 | 0.00 | 85 | 1011.5 | |
| 20260509034552 | 6 | 0.0 | 0.0 | 0.00 | 0.00 | 0.00 | 84 | 1011.5 | |
| 20260509033051 | 6 | 0.0 | 0.0 | 0.00 | 0.00 | 0.00 | 84 | 1011.4 | |
| 20260509031558 | 6 | 0.0 | 0.0 | 0.00 | 0.00 | 0.00 | 82 | 1011.3 | |
| 20260509030108 | 6 | 0.0 | 0.0 | 0.00 | 0.00 | 0.00 | 80 | 1011.4 | |
| 20260509024547 | 6 | 0.0 | 0.0 | 0.00 | 0.00 | 0.00 | 78 | 1011.6 | |
| 20260509023047 | 6 | 0.0 | 0.0 | 0.00 | 0.00 | 0.00 | 78 | 1011.5 | |
| 20260509021547 | 6 | 0.0 | 0.0 | 0.00 | 0.00 | 0.00 | 77 | 1011.5 | |
| 20260509020050 | 6 | 0.0 | 0.0 | 0.00 | 0.00 | 0.00 | 76 | 1011.7 | |
| 20260509014545 | 7 | 0.0 | 0.0 | 0.00 | 0.00 | 0.00 | 73 | 1011.6 | |
| 20260509013045 | 7 | 0.0 | 0.0 | 0.00 | 0.00 | 0.00 | 72 | 1011.5 | |
| 20260509011545 | 7 | 0.0 | 0.0 | 0.00 | 0.00 | 0.00 | 68 | 1011.2 | |
| 20260509010044 | 7 | 0.0 | 0.0 | 0.00 | 0.00 | 0.00 | 67 | 1011.2 | |
| 20260509004553 | 8 | 0.0 | 0.0 | 0.00 | 0.00 | 0.00 | 60 | 1010.9 | |
| 20260509003051 | 8 | 0.0 | 0.0 | 0.00 | 0.00 | 0.00 | 62 | 1010.8 | |
| 20260509001543 | 8 | 0.0 | 0.0 | 0.00 | 0.00 | 0.00 | 61 | 1010.7 | |
| 20260509000042 | 9 | 0.0 | 0.0 | 0.00 | 0.00 | 0.00 | 59 | 1010.6 | |
| 20260508234542 | 10 | 0.0 | 0.0 | 0.00 | 0.00 | 0.00 | 55 | 1010.4 | |
| 20260508233042 | 10 | 0.0 | 0.0 | 0.00 | 0.00 | 0.00 | 53 | 1010.2 | |
| 20260508231540 | 11 | 0.0 | 0.0 | 0.00 | 0.00 | 0.00 | 55 | 1010.0 | |
| 20260508230040 | 11 | 0.0 | 0.0 | 0.00 | 0.00 | 0.00 | 51 | 1010.1 | |
| 20260508224549 | 11 | 0.0 | 0.0 | 0.00 | 0.00 | 0.00 | 48 | 1010.1 | |
| 20260508223047 | 12 | 0.0 | 0.0 | 0.00 | 0.00 | 0.00 | 48 | 1010.1 | |
| 20260508221537 | 12 | 0.0 | 0.0 | 0.00 | 0.00 | 0.00 | 47 | 1010.1 | |
| 20260508220044 | 12 | 0.0 | 0.0 | 0.00 | 0.00 | 0.00 | 48 | 1010.0 | |
| 20260508214632 | 11 | 0.0 | 0.0 | 0.00 | 0.00 | 0.00 | 49 | 1010.1 | |
| 20260508213032 | 11 | 0.0 | 0.0 | 0.00 | 0.00 | 0.00 | 50 | 1010.3 | |
| 20260508211533 | 11 | 0.0 | 0.0 | 0.00 | 0.00 | 0.00 | 47 | 1010.3 | |
| 20260508210032 | 11 | 0.0 | 0.0 | 0.00 | 0.00 | 0.00 | 46 | 1010.3 | |
| 20260508204533 | 11 | 0.0 | 0.0 | 0.00 | 0.00 | 0.00 | 49 | 1010.3 | |
| 20260508203030 | 11 | 0.0 | 0.0 | 0.00 | 0.00 | 0.00 | 48 | 1010.4 | |
| 20260508201531 | 11 | 0.0 | 0.0 | 0.00 | 0.00 | 0.00 | 50 | 1010.6 | |
| 20260508200032 | 11 | 0.0 | 0.0 | 0.00 | 0.00 | 0.00 | 48 | 1010.7 | |
| 20260508194534 | 11 | 0.0 | 0.0 | 0.00 | 0.00 | 0.00 | 51 | 1011.0 | |
| 20260508193023 | 11 | 0.0 | 0.0 | 0.00 | 0.00 | 0.00 | 52 | 1011.0 | |
| 20260508191532 | 10 | 0.0 | 0.0 | 0.00 | 0.00 | 0.00 | 53 | 1011.3 |